Location: Ammerl�gen
(47.2167°N, 9.6000°E)
Time: 20:06:40
(UTC+00:00)

DMSP 5D-2 F13 DEB - Pass Details

Date: 23 October 2021
Orbit: 758 x 780 km, 98.7° (Epoch: 03 December)

Event Time Altitude Azimuth Distance (km) Brightness Sun altitude
Exits shadow 20:02:53 24° 306° (NW) 1,542 ? -37.8°
Drops below altitude 10° 20:05:21 10° 328° (NNW) 2,302 ? -38.2°
Sets 20:07:53 0° 338° (NNW) 3,231 ? -38.6°
